Lid_Strength_Index
3 2 2 1 1 1 1 0 -1 -1 -2 -2 -1 -1 -1 -1 -1 -1 -1 -1 -1 -1 -1 -1 -2 -1 2 7 8 3 0 1 3 6 8 8 9 10 12 12 11 13 12 12 11 11 12
3 3 2 1 1 1 1 0 -1 -1 -1 -1 -1 -0 -0 -0 -0 -1 -1 -1 -1 -1 -1 -1 -2 1 5 11 4 3 3 4 5 7 8 8 9 9 11 12 12 11 12 12 12 12 12
2 3 2 2 1 1 1 1 -0 -1 -1 -1 -1 -1 -0 0 0 -0 -1 -1 -2 -1 -1 -1 -0 3 7 9 3 3 4 6 6 7 9 8 8 9 10 12 11 11 13 12 12 12 12
3 3 3 2 1 1 1 1 -0 -0 -1 -1 -1 -0 0 -0 0 0 -0 -1 -1 -1 -1 -1 1 4 9 3 2 4 5 6 5 6 8 8 8 9 10 11 12 14 14 14 12 12 11
3 3 3 3 1 1 1 1 1 -0 -1 -1 -0 -0 0 -1 0 1 0 0 1 -0 -0 1 5 6 9 3 6 5 6 7 7 6 7 7 9 11 11 14 15 15 17 15 13 11 12
2 4 3 3 2 1 1 1 1 0 -0 -0 0 0 0 -0 0 1 1 0 0 3 4 4 5 8 7 8 6 6 5 6 7 8 8 10 12 14 15 15 18 16 16 16 15 13 12
1 3 4 4 4 2 2 1 1 1 0 0 0 1 0 -0 1 1 4 5 7 7 7 9 9 9 8 6 5 7 6 7 7 9 13 12 15 17 15 15 16 15 16 16 14 12 13
1 3 4 4 4 3 2 1 1 1 1 1 1 1 0 0 2 2 5 8 8 8 10 7 8 8 7 7 9 8 6 10 10 13 12 14 16 14 13 14 15 15 16 16 14 12 13
1 2 4 4 4 3 2 2 1 2 1 1 1 1 1 1 2 5 7 8 5 7 11 10 8 8 8 8 10 9 8 10 12 13 14 15 14 12 13 14 14 15 16 16 15 14 14
1 2 3 4 4 3 3 2 2 1 2 2 2 1 1 1 5 7 8 6 6 6 16 14 10 8 7 8 11 7 7 10 12 14 14 14 12 13 14 14 15 16 13 14 15 16 18
1 2 2 4 4 4 3 3 2 2 2 2 2 2 2 3 8 9 7 6 6 9 22 12 10 6 7 10 10 9 7 9 13 13 14 14 13 14 14 14 13 15 12 14 14 17 19
1 1 1 2 4 4 4 3 3 2 2 2 2 2 3 7 7 7 6 7 10 17 24 14 10 11 11 10 10 9 9 9 10 12 13 14 11 12 13 12 12 12 14 16 16 18 22
1 1 1 1 4 4 4 4 4 3 2 2 2 2 5 7 9 7 7 11 17 21 15 14 13 11 11 12 11 11 12 13 15 19 20 15 14 12 11 13 12 14 17 22 22 22 21
1 1 1 1 2 4 4 4 4 4 3 3 3 4 5 6 8 8 11 13 20 17 15 12 12 12 13 12 12 12 14 15 13 15 19 21 21 14 12 13 14 14 16 22 24 22 21
1 1 1 1 1 2 4 4 4 4 4 4 5 9 8 8 7 9 12 19 19 16 12 13 13 15 15 13 13 13 15 15 14 14 17 18 17 12 12 11 12 14 17 14 19 19 20
1 1 1 1 1 2 3 4 4 4 3 6 11 11 9 7 8 10 14 16 15 13 12 13 15 14 16 14 15 14 14 13 13 12 13 15 17 13 12 11 11 13 12 17 17 22 22
1 1 1 1 1 1 2 3 4 4 4 6 12 14 11 8 9 12 17 17 13 11 11 13 15 15 15 15 14 15 15 12 11 12 12 13 15 15 12 13 14 13 14 15 16 18 21
0 1 1 1 1 1 2 2 3 4 5 9 14 15 11 11 14 16 16 14 10 12 11 12 13 14 15 15 16 16 15 13 11 11 14 13 16 18 15 13 12 13 15 16 19 20 17
1 1 1 1 1 1 2 2 3 3 5 11 14 16 11 12 18 19 15 13 12 13 13 12 13 13 13 15 17 16 15 12 11 12 14 13 17 22 20 16 14 15 15 15 16 16 18
1 2 1 1 1 1 2 2 3 3 4 11 14 16 14 14 15 16 16 16 15 12 12 12 13 13 14 15 15 16 16 12 11 11 9 11 16 18 21 20 16 16 15 15 15 17 18
1 1 1 1 1 1 2 2 3 3 5 10 14 16 16 18 16 17 17 15 16 16 13 12 14 13 15 17 17 17 15 14 12 10 12 13 17 18 17 16 16 16 15 15 16 15 17
1 1 1 1 1 1 2 3 3 3 5 11 14 14 14 16 16 18 17 17 15 15 15 16 15 14 14 16 15 17 15 15 16 14 14 14 17 17 19 17 17 17 16 16 15 15 15
1 1 1 1 1 1 2 3 3 4 7 12 12 13 13 15 16 18 18 17 16 15 14 14 14 16 16 14 14 13 13 14 15 15 15 16 17 19 20 18 18 20 18 16 16 15 15
1 2 1 1 1 1 2 3 4 4 8 10 12 13 14 16 15 16 16 16 16 15 16 14 14 15 14 13 14 15 17 16 15 15 14 18 18 18 21 20 25 18 17 16 16 16 14
2 2 2 2 2 2 2 3 4 4 7 11 12 13 14 14 16 16 16 16 16 16 16 15 14 13 13 14 17 18 20 19 19 18 17 17 18 20 23 23 20 19 18 19 18 17 16
2 2 2 2 2 2 2 2 3 5 6 11 12 12 13 14 14 15 16 17 17 19 18 16 14 13 14 16 17 21 22 22 21 20 17 17 17 19 20 23 23 20 18 16 17 20 18
2 2 2 2 2 2 2 2 2 4 6 9 11 11 13 15 14 15 16 16 16 18 17 17 16 15 15 18 19 20 21 20 22 21 19 18 17 19 19 20 19 16 16 15 20 18 16
2 2 2 2 2 2 2 2 3 3 4 7 10 11 12 13 14 14 14 15 15 16 17 16 16 16 17 18 19 20 21 20 21 20 20 19 19 19 18 20 23 15 16 17 15 15 15
4 4 4 3 3 2 2 2 2 3 4 7 10 11 10 12 11 13 13 13 12 12 14 16 16 17 15 19 19 19 19 20 20 21 19 20 18 19 18 18 15 15 15 14 15 15 15